Flag for Norway Weather past 2 weeks in Brønnøysund, Norway

Now
55 °F

Clear.


Feels Like: 53 °F
Forecast: 50 / 56 °F
Wind: 9 mph from North

Location: Bronnoysund / Bronnoy

Current Time: Aug 1, 2015 at 8:20:36 PM

Latest Report: Aug 1, 2015 at 7:50 PM


Visibility: N/A

Pressure: 29.95 "Hg

Humidity: 72%

Dew point: 46 °F

Location of BrønnøysundLocation

Historic Weather in Brønnøysund — Graph

°F

Brønnøysund temperature yesterday

Maximum temperature yesterday: 55 °F (at 4:50 PM)
Minimum temperature yesterday: 48 °F (at 12:20 AM)
Average temperature yesterday: 51 °F

Past Weeks' High & Low Weather Summary

 TemperatureHumidityPressure
High64 °F (Jul 22, 11:50 AM)100% (Jul 19, 3:20 AM)29.95 "Hg (Jul 19, 3:20 AM)
Low45 °F (Jul 26, 3:50 AM)55% (Jul 18, 6:20 AM)29.27 "Hg (Jul 27, 5:50 AM)
Average53 °F84%29.65 "Hg
* Reported Jul 17 6:50 PM — Aug 1 6:50 PM, Brønnøysund, Weather by CustomWeather, © 2015

Note: Actual official high and low records may vary slightly from our data, if they occured in-between our weather recording intervals... More about our weather records

Advertising

Brønnøysund weather history for previous 24 hours

 ConditionsComfort  
Time TempWeatherWind HumidityBarometerVisibility
6:50 PM
Sat, Aug 1
55 °FCool.8 mph72%29.95 "HgN/A
6:20 PM55 °FScattered clouds.8 mph72%29.95 "HgN/A
5:50 PM55 °FMostly cloudy.9 mph72%29.95 "HgN/A
4:50 PM55 °FMostly cloudy.7 mph72%29.95 "HgN/A
4:20 PM57 °FScattered clouds.9 mph72%29.95 "HgN/A
3:50 PM55 °FScattered clouds.8 mph72%29.95 "HgN/A
3:20 PM55 °FPassing clouds.8 mph72%29.95 "HgN/A
2:50 PM55 °FPassing clouds.8 mph72%29.95 "HgN/A
2:20 PM55 °FScattered clouds.9 mph77%29.95 "HgN/A
1:20 PM57 °FScattered clouds.8 mph67%29.95 "HgN/A
12:50 PM59 °FScattered clouds.9 mph63%29.95 "HgN/A
12:20 PM55 °FPassing clouds.9 mph72%29.95 "HgN/A
11:50 AM52 °FScattered clouds.6 mph82%29.95 "HgN/A
11:20 AM52 °FScattered clouds.6 mph82%29.95 "HgN/A
10:50 AM57 °FScattered clouds.7 mph77%29.92 "HgN/A
9:50 AM52 °FPartly sunny.6 mph88%29.92 "HgN/A
8:50 AM54 °FScattered showers. Scattered clouds.5 mph82%29.92 "HgN/A
8:20 AM54 °FScattered showers. Scattered clouds.7 mph82%29.92 "HgN/A
7:50 AM52 °FScattered clouds.8 mph88%29.92 "HgN/A
7:20 AM50 °FScattered clouds.9 mph94%29.92 "HgN/A
6:50 AM52 °FScattered clouds.9 mph88%29.89 "HgN/A
5:50 AM50 °FPartly sunny.8 mph94%29.92 "HgN/A
5:20 AM50 °FOvercast.8 mph94%29.92 "HgN/A
4:50 AM48 °FMostly cloudy.7 mph94%29.92 "HgN/A
4:20 AM48 °FPassing clouds.7 mph94%29.89 "HgN/A
3:50 AM48 °FPassing clouds.7 mph94%29.89 "HgN/A
3:20 AM48 °FPassing clouds.7 mph94%29.89 "HgN/A
2:50 AM48 °FPassing clouds.7 mph94%29.89 "HgN/A
2:20 AM48 °FPassing clouds.7 mph94%29.89 "HgN/A
1:50 AM48 °FSprinkles. Partly cloudy.7 mph94%29.86 "HgN/A
1:20 AM50 °FSprinkles. Partly cloudy.7 mph94%29.86 "HgN/A
12:50 AM50 °FSprinkles. Partly cloudy.7 mph94%29.86 "HgN/A
12:20 AM48 °FPassing clouds.7 mph94%29.86 "HgN/A
11:50 PM
Fri, Jul 31
50 °FLight rain. Passing clouds.7 mph88%29.86 "HgN/A
11:20 PM48 °FBroken clouds.6 mph94%29.86 "HgN/A
10:50 PM48 °FScattered clouds.6 mph94%29.83 "HgN/A
9:50 PM50 °FPassing clouds.6 mph88%29.83 "HgN/A
8:50 PM52 °FPassing clouds.6 mph82%29.83 "HgN/A
8:20 PM54 °FScattered clouds.9 mph77%29.80 "HgN/A
Weather by CustomWeather, © 2015

See weather overviewHow to use our weather pages